TimeEST,TemperatureF,Dew PointF,Humidity,Sea Level PressureIn,VisibilityMPH,Wind Direction,Wind SpeedMPH,Gust SpeedMPH,PrecipitationIn,Events,Conditions,WindDirDegrees,DateUTC
12:21 AM,33.8,28.4,81,30.11,9.0,NNW,15.0,-,0.00,Snow,Light Snow,330,2013-01-07 05:21:00
12:54 AM,32.0,27.0,82,30.16,10.0,NNW,16.1,-,0.00,,Overcast,340,2013-01-07 05:54:00
1:30 AM,30.2,26.6,86,30.16,10.0,NW,10.4,-,N/A,,Overcast,320,2013-01-07 06:30:00
1:54 AM,30.0,26.1,85,30.21,10.0,NW,15.0,-,N/A,,Overcast,320,2013-01-07 06:54:00
2:54 AM,27.0,21.0,78,30.26,10.0,NW,10.4,-,N/A,,Mostly Cloudy,320,2013-01-07 07:54:00
3:54 AM,26.1,19.9,78,30.28,10.0,NW,10.4,-,N/A,,Overcast,320,2013-01-07 08:54:00
4:04 AM,26.6,19.4,74,30.26,10.0,NW,6.9,-,N/A,,Overcast,320,2013-01-07 09:04:00
4:54 AM,25.0,19.9,81,30.31,10.0,NNW,8.1,-,N/A,,Overcast,330,2013-01-07 09:54:00
5:17 AM,24.8,19.4,80,30.29,10.0,WNW,6.9,-,N/A,,Overcast,300,2013-01-07 10:17:00
5:54 AM,24.8,19.4,80,30.30,10.0,WNW,8.1,-,N/A,,Overcast,290,2013-01-07 10:54:00
6:54 AM,25.0,19.9,81,30.36,10.0,NNW,5.8,-,N/A,,Overcast,330,2013-01-07 11:54:00
7:54 AM,25.0,19.9,81,30.37,10.0,NW,3.5,-,N/A,,Overcast,320,2013-01-07 12:54:00
8:54 AM,26.1,19.9,78,30.40,10.0,Calm,Calm,-,0.00,,Mostly Cloudy,0,2013-01-07 13:54:00
9:54 AM,26.1,21.0,81,30.40,10.0,SSW,6.9,-,N/A,,Mostly Cloudy,210,2013-01-07 14:54:00
10:54 AM,27.0,21.0,78,30.41,10.0,SW,9.2,-,N/A,,Mostly Cloudy,220,2013-01-07 15:54:00
11:03 AM,28.4,21.2,74,30.38,10.0,SW,10.4,-,N/A,,Mostly Cloudy,220,2013-01-07 16:03:00
11:50 AM,28.4,21.2,74,30.37,10.0,WSW,12.7,-,N/A,,Mostly Cloudy,240,2013-01-07 16:50:00
11:54 AM,28.9,21.0,72,30.39,10.0,WSW,9.2,19.6,N/A,,Mostly Cloudy,240,2013-01-07 16:54:00
12:54 PM,30.0,21.0,69,30.38,10.0,SW,8.1,-,N/A,,Overcast,230,2013-01-07 17:54:00
1:54 PM,30.2,23.0,75,30.32,10.0,SSW,13.8,-,N/A,,Overcast,210,2013-01-07 18:54:00
2:54 PM,32.0,23.0,69,30.34,10.0,SSW,15.0,-,N/A,,Overcast,200,2013-01-07 19:54:00
3:54 PM,33.1,24.1,70,30.31,10.0,SSW,16.1,-,N/A,,Overcast,210,2013-01-07 20:54:00
4:54 PM,33.1,24.1,70,30.28,10.0,SSW,13.8,24.2,N/A,,Overcast,200,2013-01-07 21:54:00
5:54 PM,32.0,23.0,69,30.24,10.0,SSW,12.7,-,N/A,,Mostly Cloudy,210,2013-01-07 22:54:00
6:09 PM,32.0,23.0,69,30.23,10.0,SSW,12.7,-,N/A,,Scattered Clouds,200,2013-01-07 23:09:00
6:54 PM,30.9,23.0,72,30.26,10.0,SSW,13.8,-,N/A,,Partly Cloudy,200,2013-01-07 23:54:00
7:54 PM,30.0,23.0,75,30.25,10.0,SSW,12.7,-,N/A,,Partly Cloudy,200,2013-01-08 00:54:00
8:54 PM,30.0,23.0,75,30.25,9.0,SW,12.7,-,N/A,,Clear,220,2013-01-08 01:54:00
9:54 PM,30.0,23.0,75,30.23,9.0,SSW,15.0,-,N/A,,Clear,200,2013-01-08 02:54:00
10:54 PM,30.0,23.0,75,30.22,9.0,SSW,12.7,-,N/A,,Clear,210,2013-01-08 03:54:00
11:54 PM,30.0,21.9,72,30.20,9.0,SSW,17.3,-,N/A,,Clear,210,2013-01-08 04:54:00